This is the latest recevied weather packets stored in our database for station/object KF6YUA. If no packets are shown the sender has not sent any weather packets the latest 10 day(s).
| Time | Temp. | Humidity | Pressure | Rain* | Wind** | Luminosity | Snow |
|---|---|---|---|---|---|---|---|
| 1777581010 | 22.22° C | 61% | 1016.3 hPa | 0 mm | - | 609 W/m² | - |
| 1777580710 | 22.22° C | 62% | 1016.3 hPa | 0 mm | - | 505 W/m² | - |
| 1777580406 | 22.22° C | 63% | 1016.3 hPa | 0 mm | - | 528 W/m² | - |
| 1777580102 | 22.78° C | 61% | 1016.3 hPa | 0 mm | - | 574 W/m² | - |
| 1777579799 | 22.22° C | 65% | 1016.5 hPa | 0 mm | - | 487 W/m² | - |
| 1777579496 | 22.22° C | 67% | 1016.3 hPa | 0 mm | - | 498 W/m² | - |
| 1777579191 | 22.22° C | 68% | 1016.2 hPa | 0 mm | - | 420 W/m² | - |
| 1777578887 | 21.67° C | 67% | 1016.3 hPa | 0 mm | - | 464 W/m² | - |
| 1777578583 | 22.78° C | 63% | 1016.5 hPa | 0 mm | - | 645 W/m² | - |
| 1777578283 | 22.22° C | 60% | 1016.5 hPa | 0 mm | - | 642 W/m² | - |
| 1777577979 | 22.22° C | 61% | 1016.4 hPa | 0 mm | - | 592 W/m² | - |
| 1777577674 | 21.67° C | 63% | 1016.7 hPa | 0 mm | - | 502 W/m² | - |
| 1777577372 | 21.67° C | 63% | 1016.5 hPa | 0 mm | - | 416 W/m² | - |
| 1777577067 | 20.56° C | 63% | 1016.5 hPa | 0 mm | - | 411 W/m² | - |
| 1777576765 | 20.56° C | 63% | 1016.5 hPa | 0 mm | - | 214 W/m² | - |
| 1777576464 | 20.56° C | 64% | 1016.7 hPa | 0 mm | - | 202 W/m² | - |
| 1777576161 | 20.56° C | 63% | 1016.8 hPa | 0 mm | - | 197 W/m² | - |
| 1777575861 | 20.56° C | 65% | 1016.9 hPa | 0 mm | - | 192 W/m² | - |
| 1777575558 | 20.56° C | 65% | 1016.7 hPa | 0 mm | - | 188 W/m² | - |
| 1777575254 | 20° C | 65% | 1016.8 hPa | 0 mm | - | 184 W/m² | - |
| 1777574950 | 20° C | 62% | 1016.9 hPa | 0 mm | - | 181 W/m² | - |
| 1777574646 | 18.89° C | 62% | 1017 hPa | 0 mm | - | 180 W/m² | - |
| 1777574343 | 18.89° C | 65% | 1016.9 hPa | 0 mm | - | 179 W/m² | - |
| 1777574038 | 18.89° C | 62% | 1017 hPa | 0 mm | - | 177 W/m² | - |
| 1777573733 | 18.89° C | 67% | 1016.9 hPa | 0 mm | - | 180 W/m² | - |
* Rain latest hour (hover to see other rain measurements)
** Current wind speed in m/s (hover to see current wind gust speed)